Back to catalog

STARLINK-31225

AliveCommunicationsVLEO
NORAD 59040·PAYLOAD·🇺🇸 United States

Launched Feb 25, 2024 from Cape Canaveral Space Force Station

Loading…

Next Passes (next 24 hours)

TLE

FreshSource: CelesTrak SupGP

Epoch: Sep 14, 2026, 15:01 UTC

1 59040C 24038T   26257.62618056 -.00049064  00000+0 -17776-2 0  2572
2 59040  43.0009  36.2739 0001265 272.0046 187.7675 15.27594110    18

Track STARLINK-31225 in real time with AllMySat

Download on the App Store